Weather History for Lamoni, IA

Change the Weather History Date:

Monday, July 22, 2013

  Actual Average Record
Temperature  
Mean Temperature 79 °F 75 °F  
Max Temperature 90 °F 85 °F 103 °F (1983)
Min Temperature 67 °F 66 °F 55 °F (1970)
Degree Days  
Heating Degree Days 0 0  
Month to date heating degree days 0 0  
Since 1 June heating degree days 32 19  
Since 1 July heating degree days 0 0  
Cooling Degree Days 14 11  
Month to date cooling degree days 257 222  
Year to date cooling degree days 514 469  
Since 1 June cooling degree days 438 415  
Growing Degree Days 28 (Base 50)    
Moisture  
Dew Point 68 °F    
Average Humidity 76    
Maximum Humidity 100    
Minimum Humidity 52    
Precipitation  
Precipitation 0.04 in 0.16 in 2.56 in (1993)
Month to date precipitation 1.87 3.61  
Sea Level Pressure  
Sea Level Pressure 29.81 in    
Wind  
Wind Speed 6 mph (South)    
Max Wind Speed 26 mph    
Max Gust Speed 35 mph    
Visibility 6 miles    
Events Fog , Thunderstorm    
T = Trace of Precipitation, MM = Missing Value Source: NWS Daily Summary

Daily Weather History Graph

Daily Weather History Graph

Search for Another Location

Airport:

Trip Planner

Search our weather history database for the weather conditions in past years. The results will help you decide how hot, cold, wet, or windy it might be!

Date:

Astronomy

Jul. 22, 2013 Rise Set
Actual Time 6:03 AM CDT 8:40 PM CDT
Civil Twilight 5:31 AM CDT 9:11 PM CDT
Nautical Twilight 4:52 AM CDT 9:50 PM CDT
Astronomical Twilight 4:07 AM CDT 10:35 PM CDT
Moon 8:26 PM CDT (7/22) 6:01 AM CDT (7/22)
Length of Visible Light 15h 39m
Length of Day
14h 36m
Full, 100% of the Moon is Illuminated
Jul 22
Full
Jul 22
Full
Jul 29
Last Quarter
Aug 6
New
Aug 14
First Quarter

Hourly Weather History & Observations

Time (CDT) Temp. Heat Index Dew Point Humidity Pressure Visibility Wind Dir Wind Speed Gust Speed Precip Events Conditions
12:53 AM 68.0 °F - 64.9 °F 90% 29.85 in 10.0 mi South 4.6 mph - N/A   Clear
1:53 AM 66.9 °F - 64.9 °F 93% 29.84 in 10.0 mi South 4.6 mph - N/A   Clear
2:53 AM 66.9 °F - 64.9 °F 93% 29.82 in 7.0 mi South 5.8 mph - N/A   Clear
3:25 AM 66.2 °F - 64.4 °F 94% 29.82 in 5.0 mi South 6.9 mph - N/A   Partly Cloudy
3:40 AM 66.2 °F - 64.4 °F 94% 29.82 in 4.0 mi South 6.9 mph - N/A   Mostly Cloudy
3:53 AM 66.9 °F - 64.9 °F 93% 29.80 in 2.0 mi South 5.8 mph - N/A   Overcast
4:04 AM 66.2 °F - 66.2 °F 100% 29.82 in 1.5 mi South 4.6 mph - N/A   Overcast
4:28 AM 66.2 °F - 66.2 °F 100% 29.81 in 0.5 mi SSW 6.9 mph - N/A Fog Fog
4:53 AM 66.9 °F - 66.0 °F 97% 29.79 in 0.5 mi SW 5.8 mph - N/A Fog Fog
5:11 AM 66.2 °F - 66.2 °F 100% 29.82 in 1.5 mi Calm Calm - N/A   Overcast
5:28 AM 66.2 °F - 66.2 °F 100% 29.82 in 2.0 mi Calm Calm - N/A   Overcast
5:46 AM 66.2 °F - 66.2 °F 100% 29.82 in 1.0 mi Calm Calm - N/A   Mist
5:53 AM 66.9 °F - 66.0 °F 97% 29.80 in 0.5 mi Calm Calm - N/A Fog Fog
6:53 AM 66.9 °F - 66.0 °F 97% 29.81 in 0.2 mi SSE 4.6 mph - N/A Fog Fog
7:53 AM 68.0 °F - 66.9 °F 96% 29.83 in 0.2 mi South 3.5 mph - N/A Fog Fog
8:23 AM 69.8 °F - 69.8 °F 100% 29.85 in 1.2 mi SSE 3.5 mph - N/A   Overcast
8:39 AM 69.8 °F - 69.8 °F 100% 29.86 in 3.0 mi Calm Calm - N/A   Overcast
8:53 AM 71.1 °F - 70.0 °F 96% 29.84 in 5.0 mi Calm Calm - N/A   Mostly Cloudy
9:06 AM 71.6 °F - 69.8 °F 94% 29.86 in 9.0 mi Calm Calm - N/A   Scattered Clouds
9:53 AM 79.0 °F - 71.1 °F 77% 29.83 in 10.0 mi Calm Calm - N/A   Clear
10:53 AM 81.0 °F 85.8 °F 73.0 °F 77% 29.82 in 10.0 mi South 8.1 mph - N/A   Partly Cloudy
11:53 AM 84.9 °F 90.7 °F 72.0 °F 65% 29.81 in 10.0 mi SSW 8.1 mph - N/A   Clear
12:53 PM 86.0 °F 91.5 °F 71.1 °F 61% 29.80 in 10.0 mi South 10.4 mph - N/A   Partly Cloudy
1:53 PM 88.0 °F 92.9 °F 70.0 °F 55% 29.79 in 10.0 mi South 9.2 mph - N/A   Partly Cloudy
2:53 PM 88.0 °F 93.8 °F 71.1 °F 57% 29.79 in 10.0 mi South 10.4 mph 16.1 mph N/A   Mostly Cloudy
3:53 PM 90.0 °F 96.4 °F 71.1 °F 54% 29.78 in 10.0 mi South 10.4 mph - N/A   Clear
4:53 PM 89.1 °F 94.1 °F 70.0 °F 53% 29.78 in 10.0 mi SW 10.4 mph - N/A   Partly Cloudy
5:53 PM 90.0 °F 94.5 °F 69.1 °F 50% 29.76 in 10.0 mi SW 8.1 mph - N/A   Clear
6:53 PM 89.1 °F 94.1 °F 70.0 °F 53% 29.74 in 10.0 mi WSW 6.9 mph - N/A   Clear
7:53 PM 87.1 °F 92.0 °F 70.0 °F 57% 29.75 in 10.0 mi Calm Calm - N/A   Clear
8:53 PM 82.9 °F 87.5 °F 71.1 °F 67% 29.74 in 10.0 mi SE 4.6 mph - N/A   Clear
9:53 PM 82.0 °F 86.3 °F 71.1 °F 69% 29.78 in 10.0 mi SE 5.8 mph - N/A   Clear
10:53 PM 73.0 °F - 61.0 °F 66% 29.85 in 10.0 mi ENE 17.3 mph 24.2 mph N/A Thunderstorm Thunderstorm
11:53 PM 70.0 °F - 63.0 °F 78% 29.86 in 10.0 mi South 6.9 mph - 0.03 in Thunderstorm Thunderstorm